Other Public Products
Issued by NWS Grand Forks, ND

Home | Current Version | Previous Version | Graphics & Text | Print | Product List | Glossary On
Versions: 1 2 3 4 5 6 7 8 9 10 11 12 13 14 15 16 17 18 19 20 21 22 23 24 25 26 27 28 29 30 31 32 33 34 35 36 37 38 39 40 41 42 43 44 45 46 47 48 49 50
000
FPUS83 KFGF 240710
OPUFGF
PRAIRIE TO PINES WEATHER ROUNDUP
NATIONAL WEATHER SERVICE EASTERN NORTH DAKOTA/GRAND FORKS ND
200 AM CDT THU APR 24 2014

 **SATELLITE DATA USED TO AUGMENT SKY COVER AT AUTOMATED STATIONS**
 *****  WEATHER ACROSS EASTERN NORTH DAKOTA  *****

CITY           SKY/WX    TMP DP  RH WIND       PRES   REMARKS
GRAND FORKS    LGT RAIN  38  37  97 SE15      29.82F FOG
GRAND FORKS AF CLOUDY    38  38  99 SE10      29.81F FOG
GRAND CITY NWS   N/A     37 N/A N/A SE16        N/A
BUXTON         NOT AVBL
DEVILS LAKE    CLOUDY    39  34  81 S17G23    29.75R
FARGO          CLOUDY    42  38  85 SE10G21   29.80S
WAHPETON ARPT  CLOUDY    41  36  81 SE17G23   29.78F
$$

 *****  WEATHER ACROSS CENTRAL AND WESTERN NORTH DAKOTA  *****

CITY           SKY/WX    TMP DP  RH WIND       PRES   REMARKS
JAMESTOWN      CLOUDY    39  38  96 S7        29.73F
BISMARCK       CLOUDY    38  32  79 CALM      29.73F
MINOT          MOCLDY    41  38  89 S5        29.67R
MINOT AFB      PTCLDY    40  40  99 SW8       29.66R
GARRISON         N/A     37  36  96 S5        29.70R
WILLISTON      CLEAR     44  25  47 W16       29.65R
DICKINSON      CLEAR     39  24  55 W13       29.70S
HETTINGER      PTCLDY    33  25  72 NW5       29.77R
$$

 *****  OTHER OBSERVATIONS NORTHEAST NORTH DAKOTA  *****

CITY           SKY/WX    TMP DP  RH WIND       PRES   REMARKS
WALHALLA       CLOUDY    37  37 100 SE15      29.81F FOG
LANGDON        LGT SNOW  36  34  93 SE21G28   29.76S
CAVALIER       CLOUDY    37  36  93 SE12G18   29.82F FOG
GRAFTON        CLOUDY    37  37 100 SE16G23   29.83S FOG
CANDO          CLOUDY    37  37 100 S18       29.74R
FORT TOTTEN      N/A     38  37  95 S14       29.95S
ROLLA          CLOUDY    36  36 100 S14       29.73R FOG
RUGBY          CLOUDY    39  39 100 S13G20    29.70S FOG
 ***** THE ABOVE OBSERVATIONS ARE NON NWS ARE NOT QUALITY
        CONTROLLED AND MAY MIS-REPORT RAIN FOR SNOW...
$$

 *****  OTHER OBSERVATIONS SOUTHEAST NORTH DAKOTA *****

CITY           SKY/WX    TMP DP  RH WIND       PRES   REMARKS
COOPERSTOWN    CLOUDY    37  37 100 SE13      29.76F
VALLEY CITY    CLOUDY    39  39 100 SE10      29.75F
OAKES          PTSUNNY   37  37 100 E6        29.75F FOG
GWINNER        PTSUNNY   41  41 100 SE7       29.77F
SHEYENNE NWR     N/A     40  40  99 SE10      29.95S
BUFFALO        NOT AVBL
WYNDMERE       NOT AVBL
 ***** THE ABOVE OBSERVATIONS ARE NON NWS ARE NOT QUALITY
       CONTROLLED AND MAY MIS-REPORT RAIN FOR SNOW...
$$

  *****  WEATHER ACROSS NORTHERN MINNESOTA  *****

CITY           SKY/WX    TMP DP  RH WIND       PRES   REMARKS
FLAG ISLAND    DRIZZLE   36  34  93 SE7       29.93F
WARROAD        MIX PCPN  37  34  87 SE10      29.93S
ROSEAU         NOT AVBL
HALLOCK        CLOUDY    39  36  87 SE20G28   29.84F
THF RVR FALLS  CLOUDY    36  30  80 E16       29.87S
HALSTAD          N/A     40  39  97 SE9         N/A
FOSSTON        CLOUDY    34  34 100 SE9       29.86F
BAUDETTE       LGT RAIN  38  36  92 SE10      29.95S
WASKISH        CLOUDY    36  36 100 E12       29.93S
CROOKSTON      CLOUDY    37  37 100 SE12      29.85F
$$
  *****  WEATHER ACROSS CENTRAL AND WEST MINNESOTA  *****

CITY           SKY/WX    TMP DP  RH WIND       PRES   REMARKS
BEMIDJI        CLOUDY    33  32  97 E10       29.89S WCI  25
PARK RAPIDS    CLOUDY    37  36  96 SE10      29.86S
WADENA         CLOUDY    37  36  93 SE13      29.84S
DETROIT LAKES  RAIN      37  37 100 SE15      29.83S
MOORHEAD       CLOUDY    43  43 100 SE13G22   29.80F
FERGUS FALLS   CLOUDY    41  36  81 SE16G22   29.78F
ELBOW LAKE     CLOUDY    40  37  86 SE15      29.79F
MORRIS MN      CLOUDY    41  37  87 SE16      29.78F
STAPLES        CLOUDY    37  36  93 SE8       29.86F
WHEATON        CLOUDY    43  39  87 SE16      29.79F
$$
  *****  WEATHER ELSEWHERE ACROSS MINNESOTA  *****

CITY           SKY/WX    TMP DP  RH WIND       PRES   REMARKS
DULUTH         LGT RAIN  36  34  92 SE12      29.99F
INTRNTL FALLS  LGT RAIN  37  34  89 SE12      29.98F
ELY            RAIN      36  30  80 CALM      30.02F
CLOQUET        DRIZZLE   36  34  93 E7        29.99S
BRAINERD       CLOUDY    43  36  76 SE7       29.90S
HIBBING        LGT RAIN  34  32  92 SE9       29.99S
ALEXANDRIA     CLOUDY    40  36  86 SE15G24   29.83F
SAINT CLOUD    CLOUDY    43  37  79 SE9G18    29.86F
MINNEAPOLIS    CLOUDY    44  37  76 SE20G29   29.89F
$$

  *****  WEATHER ACROSS SOUTH DAKOTA  *****

CITY           SKY/WX    TMP DP  RH WIND       PRES   REMARKS
SIOUX FALLS    LGT RAIN  47  41  80 E10       29.69R
BROOKINGS      NOT AVBL
WATERTOWN      CLOUDY    42  37  82 SE9       29.72S
HURON          CLOUDY    49  40  71 SE9       29.69S
SISSETON         N/A     41  39  93 SE12      29.75F
ABERDEEN       CLOUDY    39  38  96 NE6       29.73F
MITCHELL       CLOUDY    47  42  83 NE5       29.69R
PIERRE         MOCLDY    44  36  73 W9        29.76R
MOBRIDGE       CLEAR     37  35  92 N3        29.72S
RAPID CITY     MOCLDY    37  26  64 NW6       29.84R
$$

  *****  SOME WEATHER IN NEARBY STATES *****

CITY           SKY/WX    TMP DP  RH WIND       PRES   REMARKS
GLASGOW MT     CLEAR     40  27  59 W12       29.69R
GREAT FALLS MT PTCLDY    36  29  75 SW20G25   29.75F
CHEYENNE WY    CLOUDY    38   7  27 NW21G30   29.96R
SCOTTSBLUFF NE CLOUDY    46  35  65 NW9       29.89S
OMAHA NE       CLOUDY    49  45  86 N13       29.65F
DES MOINES IA  CLOUDY    53  39  59 SE16G24   29.73F
DAVENPORT IA   CLOUDY    45  37  73 E15       29.95S
CHICAGO IL     LGT RAIN  39  30  70 NE10      30.07F
EAU CLAIRE WI  CLOUDY    41  39  93 E14       29.99S
LA CROSSE WI   LGT RAIN  42  36  79 SE10G22   29.99F
$$

  *****  SOME NATIONAL WEATHER *****

CITY           SKY/WX    TMP DP  RH WIND       PRES   REMARKS
LA GUARDIA NY  CLEAR     44  28  53 NW22G32   29.83F
RALEIGH NC     CLEAR     52  30  43 NE3       30.03R
ATLANTA GA     CLEAR     53  39  59 CALM      29.94F
NEW ORLEANS LA CLEAR     66  63  90 SW5       29.92S
OKLAHOMA CITY  CLOUDY    68  60  75 S18       29.65F
ALBUQUERQUE NM CLEAR     53  12  19 N8        29.98R
SALT LAKE CITY PTCLDY    40  22  48 SE8       30.07F
LOS ANGELES CA CLEAR     61  51  70 CALM      29.95S
BOISE ID       CLOUDY    48  34  58 SE9       29.96R
SEATTLE WA     LGT RAIN  49  46  90 SE13      29.65F
$$

*** WEATHER ACROSS MANITOBA...SASKATCHEWAN AND ONTARIO ***
                ***ONTARIO***

CITY           SKY/WX    TMP DP  RH WIND       PRES   REMARKS
GERALDTON      PTCLDY    27  21  80 CALM      30.11R
THUNDER BAY    CLOUDY    34  27  75 NE5       30.09S
SIOUX LOOKOUT  MOCLDY    39  19  45 SE5       30.00F
TORONTO        CLEAR     34  18  51 NW8       30.09F
BIG TROUT LK   MOCLDY    30  19  64 NE7       30.14S WCI  23
PICKLE LAKE    NOT AVBL
DRYDEN         CLOUDY    41  21  45 S9        29.98S
KENORA         CLOUDY    39  32  75 S5        29.95S
$$
                *** MANITOBA***

CITY           SKY/WX    TMP DP  RH WIND       PRES   REMARKS
BRANDON        LGT RAIN  37  36  93 SE15G23   29.74F FOG
DAUPHIN        LGT RAIN  39  37  93 SE16G24   29.77F
ISLAND LAKE    CLEAR     30  25  80 E9        30.11F WCI  22
PILOT MOUND      N/A     36  36 100 SE21        N/A
THE PAS        CLOUDY    36  25  64 E17G25    29.90F
THOMPSON       CLOUDY    23  21  93 E18G25    30.21  WCI   9
WINNIPEG       CLOUDY    41  37  87 SE17G25   29.87F
LYNN LAKE      MOCLDY    21  18  86 E13G25    30.16F WCI   9
CHURCHILL      FLURRIES  18  12  79 N6        30.44R WCI   9
GILLAM         CLOUDY    19  16  86 NE13G18   30.32S WCI   7
$$
                ***SASKATCHEWAN***

CITY           SKY/WX    TMP DP  RH WIND       PRES   REMARKS
ESTEVAN        CLOUDY    41  41 100 SW5       29.62R
KINDERSLEY     MOCLDY    39  34  81 W17G25    29.54R
LLOYDMINSTER   LGT RAIN  36  36 100 E16G24    29.51R FOG
PRINCE ALBERT  LGT RAIN  37  36  93 E17G29    29.65F
REGINA         LGT RAIN  43  41  93 SW10      29.57R



USA.gov is the U.S. government's official web portal to all federal, state and local government web resources and services.